Location: Unspecified
(0.0000°N, 0.0000°E)
Time: 16:34:19
(UTC+00:00)

ISS - Pass Details

Date: 17 September 2020
Orbit: 419 x 420 km, 51.6° (Epoch: 19 September)

Event Time Altitude Azimuth Distance (km) Brightness Sun altitude
Exits shadow 05:24:43 - 310° (NW) 2,043 -0.7 -7.4°
Reaches altitude 10° 05:26:08 10° 303° (WNW) 1,489 -1.5 -7.1°
Maximum altitude 05:29:14 36° 235° (SW) 680 -3.1 -6.3°
Drops below altitude 10° 05:32:22 10° 166° (SSE) 1,496 -0.8 -5.5°
Sets 05:34:34 0° 157° (SSE) 2,361 0.4 -5.0°
